Regional Weather Roundup
Issued by NWS

Home | Current Version | Previous Version | Graphics & Text | Print | Product List | Glossary On
Versions: 1 2 3 4 5 6 7 8 9 10 11 12 13 14 15 16 17 18 19 20 21 22 23 24 25 26 27 28 29 30 31 32 33 34 35 36 37 38 39 40 41 42 43 44 45 46 47 48 49 50
000
ASUS43 KOAX 230810
RWRNE

WEATHER ROUNDUP FOR NEBRASKA
NATIONAL WEATHER SERVICE OMAHA NE
300 AM CDT MON APR 23 2018

NOTES: SATELLITE DATA IS BEING USED TO AUGMENT CLOUD COVER ABOVE
       12000 FEET.
       "FAIR" INDICATES FEW OR NO CLOUDS BELOW 12,000 FEET WITH NO
       SIGNIFICANT WEATHER AND/OR OBSTRUCTIONS TO VISIBILITY.


NEZ001>004-019>022-054>056-230900-
NEBRASKA PANHANDLE

CITY           SKY/WX    TMP DP  RH WIND       PRES   REMARKS
SCOTTSBLUFF    CLEAR     39  37  92 E10       30.12F WCI  32
ALLIANCE       CLEAR     35  34  96 S7        30.13F WCI  29
CHADRON        CLEAR     47  37  68 S16       30.09F
GORDON         FAIR      41  36  80 CALM      30.13F
KIMBALL        CLEAR     38  36  91 S7        30.13F WCI  33
SIDNEY         CLEAR     35  32  88 S8        30.14F WCI  29
$$

NEZ057>060-069>072-079>082-230900-
SOUTHWEST NEBRASKA

CITY           SKY/WX    TMP DP  RH WIND       PRES   REMARKS
NORTH PLATTE   CLEAR     36  34  92 CALM      30.18S FOG
IMPERIAL       CLEAR     36  34  92 CALM      30.17F
LEXINGTON      CLEAR     38  35  90 NW6       30.18S WCI  33
MCCOOK         CLEAR     38  35  89 W3        30.17F
OGALLALA       CLEAR     35  32  91 CALM      30.17S
$$

NEZ005>010-023>029-035>040-094-230900-
NORTH CENTRAL NEBRASKA

CITY           SKY/WX    TMP DP  RH WIND       PRES   REMARKS
VALENTINE      CLEAR     40  36  86 SW7       30.15F
AINSWORTH      CLEAR     39  37  94 S6        30.16F WCI  34
BROKEN BOW     CLEAR     35  32  88 CALM      30.17F
O`NEILL        CLEAR     47  37  66 S5        30.17F
ORD            CLEAR     36  32  85 CALM      30.16F
THEDFORD       CLEAR     40  37  89 SE6       30.17F
$$

NEZ041-046>049-061>064-073>077-083>087-230900-
SOUTH CENTRAL NEBRASKA

CITY           SKY/WX    TMP DP  RH WIND       PRES   REMARKS
GRAND ISLAND   CLOUDY    50  42  74 CALM      30.17F
AURORA         CLOUDY    50  37  60 NE3       30.17S
HASTINGS       CLOUDY    50  43  77 CALM      30.16F
HEBRON         CLEAR     43  36  76 CALM      30.16S
HOLDREGE       CLOUDY    40  36  84 CALM      30.16F
KEARNEY        CLOUDY    50  42  74 NW3       30.17F
YORK             N/A     45  32  61 CALM      30.17S
$$

NEZ011>018-030>034-042>045-230900-
NORTHEAST NEBRASKA

CITY           SKY/WX    TMP DP  RH WIND       PRES   REMARKS
NORFOLK        CLEAR     42  33  70 SE3       30.17F
ALBION         CLOUDY    51  38  60 CALM      30.18S
BLAIR          CLEAR     48  28  45 E8        30.17S
COLUMBUS       PTCLDY    41  30  65 E3        30.18S
FREMONT        CLEAR     42  32  67 CALM      30.18S
TEKAMAH        CLEAR     37  34  89 N9        30.18S WCI  30
WAYNE          MOCLDY    33  33  96 CALM      30.19S
$$

NEZ050>053-065>068-078-088>093-230900-
SOUTHEAST NEBRASKA

CITY           SKY/WX    TMP DP  RH WIND       PRES   REMARKS
LINCOLN        CLEAR     38  31  76 N7        30.17S WCI  33
OMAHA EPPLEY   CLEAR     45  28  51 NW5       30.17S
BEATRICE       CLEAR     46  34  63 CALM      30.15S
FALLS CITY     PTCLDY    49  36  61 N6        30.13S
NEBRASKA CITY  CLEAR     48  31  50 CALM      30.16S
PLATTSMOUTH    CLEAR     49  28  42 E3        30.16S
$$

NEZ044-045-051>053-067-230900-
OMAHA AREA

CITY           SKY/WX    TMP DP  RH WIND       PRES   REMARKS
OMAHA EPPLEY   CLEAR     45  28  51 NW5       30.17S
BLAIR          CLEAR     48  28  45 E8        30.17S
FREMONT        CLEAR     42  32  67 CALM      30.18S
MILLARD        CLEAR     49  29  45 CALM      30.17S
OFFUTT AFB     CLEAR     47  26  44 E5        30.16S
PLATTSMOUTH    CLEAR     49  28  42 E3        30.16S
WAHOO          FAIR      41  28  58 N6        30.17S
$$



USA.gov is the U.S. government's official web portal to all federal, state and local government web resources and services.